Location: Unspecified
(0.0000°N, 0.0000°E)
Time: 20:37:25
(UTC+00:00)

Envisat - Visible Passes

Search period start: 10 August 2022 00:00
Search period end: 20 August 2022 00:00
Orbit: 763 x 765 km, 98.2° (Epoch: 10 August)

Date Brightness Start Highest point End Pass type
(mag) Time Alt. Az. Time Alt. Az. Time Alt. Az.
10 Aug 3.3 04:27:31 10° N 04:31:53 44° WNW 04:31:53 44° WNW visible
11 Aug 3.7 03:50:29 10° NNE 03:54:29 51° NE 03:54:29 51° NE visible
12 Aug 5.4 03:14:51 10° NE 03:17:04 19° ENE 03:17:04 19° ENE visible
12 Aug 4.2 04:53:33 10° NNW 04:57:16 22° WNW 04:57:16 22° WNW visible
13 Aug 3.1 04:15:33 10° N 04:19:51 56° NW 04:19:51 56° NW visible
14 Aug 4.3 03:38:54 10° NNE 03:42:27 37° ENE 03:42:27 37° ENE visible
14 Aug 4.9 05:22:08 10° WNW 05:22:25 10° WNW 05:22:38 10° W visible
15 Aug 5.8 03:03:56 10° ENE 03:05:02 13° ENE 03:05:02 13° ENE visible
15 Aug 3.8 04:41:13 10° NNW 04:45:14 30° WNW 04:45:14 30° WNW visible
16 Aug 3.2 04:03:42 10° N 04:07:49 60° N 04:07:49 60° N visible
17 Aug 4.9 03:27:27 10° NE 03:30:25 27° ENE 03:30:25 27° ENE visible
17 Aug 4.6 05:07:55 10° NW 05:10:36 15° WNW 05:10:36 15° WNW visible
18 Aug 3.5 04:29:05 10° N 04:33:12 40° WNW 04:33:12 40° WNW visible
19 Aug 3.7 03:51:57 10° NNE 03:55:47 50° NE 03:55:47 50° NE visible
